Regional Weather Roundup
Issued by NWS

Home | Current Version | Previous Version | Graphics & Text | Print | Product List | Glossary On
Versions: 1 2 3 4 5 6 7 8 9 10 11 12 13 14 15 16 17 18 19 20 21 22 23 24 25 26 27 28 29 30 31 32 33 34 35 36 37 38 39 40 41 42 43 44 45 46 47 48 49 50
000
ASUS45 KSLC 240210
RWRUT

UTAH REGIONAL WEATHER ROUNDUP
NATIONAL WEATHER SERVICE SALT LAKE CITY UT
800 PM MDT SAT MAY 23 2015

UTZ001>011-023>025-240300-

NORTHERN UTAH

CITY           SKY/WX    TMP DP  RH WIND       PRES   REMARKS
BRIGHAM CITY   PTCLDY    60  40  47 NW3       29.93S
HILL AFB       CLEAR     53  44  73 E7        29.94R
LOGAN          PTCLDY    55  43  63 S6        29.93S
OGDEN          CLEAR     57  44  62 NW3       29.92R
PROVO AIRPORT  MOCLDY    57  43  58 CALM      29.93R
SALT LAKE CITY PTCLDY    58  43  57 NW10      29.92R
VERNAL         CLOUDY    54  37  52 SE13      29.93R
WENDOVER       CLOUDY    55  48  76 E6        29.94R
HEBER CITY     CLOUDY    50  37  62 SE12      29.94R THUNDER
WEST JORDAN    MOCLDY    55  45  67 N10       29.94R

$$

UTZ012>022-026-027-240300-

SOUTHERN/CENTRAL UTAH

CITY           SKY/WX    TMP DP  RH WIND       PRES   REMARKS
BLANDING       CLOUDY    47  43  87 S9        30.07R
BRYCE CANYON   CLOUDY    41  37  86 W13       30.01S
CEDAR CITY     CLOUDY    49  43  80 S6        29.95F
DELTA          MOCLDY    55  41  60 SW5       29.94R
HANKSVILLE     CLOUDY    54  45  71 S3        29.95R
MILFORD        CLOUDY    52  46  80 SW12      29.95R
MOAB/CYNLANDS  RAIN      56  43  61 E3        29.91R
PRICE          PTCLDY    50  36  58 W3        29.96R
ST GEORGE      MOCLDY    64  45  48 NE12      29.92R
KANAB          CLOUDY    54  48  82 CALM      30.00S

$$

REGIONAL REPORTS     COLORADO/ARIZONA

CITY           SKY/WX    TMP DP  RH WIND       PRES   REMARKS
CRAIG, CO      CLOUDY    47  37  68 S6        29.99R
GRAND JUNCTION MOCLDY    50  42  74 S3        29.96S
RIFLE          CLOUDY    54  36  50 W18G25    29.96R
MONTROSE       MOCLDY    45  41  86 CALM      30.02R
CORTEZ         CLOUDY    46  42  86 NE7       30.02F
PAGE, AZ       LGT RAIN  54  49  83 SW5       29.95R
GRAND CANYON   CLOUDY    48  46  93 CALM      30.04R
KINGMAN        PTCLDY    70  36  28 SW20      29.92S
FLAGSTAFF      CLOUDY    50  32  50 W10       30.07R

$$

REGIONAL REPORTS    NEVADA/IDAHO/WYOMING

CITY           SKY/WX    TMP DP  RH WIND       PRES   REMARKS
LAS VEGAS, NV  MOCLDY    79  36  21 W9        29.77S
ELY            LGT RAIN  49  46  90 NW9       29.98R
ELKO           LGT RAIN  53  48  83 CALM      29.98R
POCATELLO, ID  MOCLDY    53  53 100 NE6       29.97R
BURLEY         CLOUDY    53  49  86 N3        29.93R
EVANSTON, WY   PTCLDY    47  38  71 W5        29.98S
ROCK SPRINGS   CLOUDY    48  38  68 E8        29.96R
KEMMERER       MOCLDY    45  39  81 NW7       29.99S

$$



USA.gov is the U.S. government's official web portal to all federal, state and local government web resources and services.